Barnwell, SC

10:41 AM EST on November 17, 2019 (GMT -0500)
Barnwell County

Weather History for KBNL - October, 2019

Change the Weather History Date:

Monday, October 21, 2019

  Actual Average (WUND) Record (WUND)
Temperature  
Mean Temperature 68 °F -  
Max Temperature 80 °F - - (-1)
Min Temperature 55 °F - - (-1)
Cooling Degree Days 2    
Growing Degree Days 18 (Base 50)    
Moisture  
Dew Point 62 °F    
Average Humidity 85    
Maximum Humidity 100    
Minimum Humidity 58    
Precipitation  
Precipitation 0.00 in - - ()
Sea Level Pressure  
Sea Level Pressure 30.01 in    
Wind  
Wind Speed 3 mph (SE)    
Max Wind Speed 12 mph    
Max Gust Speed 15 mph    
Visibility 8 miles    
Events Fog    
Averages and records for this station are not official NWS values.
T = Trace of Precipitation, MM = Missing Value Source: NWS Daily Summary

Daily Weather History Graph

Daily Weather History Graph

Search for Another Location

Airport or City:

Astronomy

Oct. 21, 2019 Rise Set
Actual Time 7:34 AM EDT 6:45 PM EDT
Civil Twilight 7:09 AM EDT 7:10 PM EDT
Nautical Twilight 6:40 AM EDT 7:39 PM EDT
Astronomical Twilight 6:11 AM EDT 8:08 PM EDT
Moon 12:05 AM EDT (10/21) 2:41 PM EDT (10/21)
Length of Visible Light 12h 01m
Length of Day
11h 10m
Waning Gibbous, 48% of the Moon is Illuminated
Oct 21
Waning Gibbous
Oct 27
New
Nov 4
First Quarter
Nov 12
Full
Nov 19
Last Quarter

Hourly Weather History & Observations

Time (EDT) Temp. Heat Index Dew Point Humidity Pressure Visibility Wind Dir Wind Speed Gust Speed Precip Events Conditions
12:15 AM 60.8 °F - 60.8 °F 100% 29.98 in 10.0 mi Calm Calm - N/A   Clear
12:35 AM 60.8 °F - 60.8 °F 100% 29.98 in 10.0 mi Calm Calm - N/A   Clear
12:55 AM 60.8 °F - 59.0 °F 94% 29.99 in 10.0 mi Calm Calm - N/A   Clear
1:15 AM 60.8 °F - 59.0 °F 94% 29.99 in 10.0 mi Calm Calm - N/A   Clear
1:35 AM 60.8 °F - 59.0 °F 94% 29.99 in 10.0 mi Calm Calm - N/A   Clear
1:55 AM 60.8 °F - 59.0 °F 94% 29.99 in 10.0 mi Calm Calm - N/A   Clear
2:15 AM 60.8 °F - 60.8 °F 100% 29.99 in 10.0 mi Calm Calm - N/A   Clear
2:35 AM 60.8 °F - 59.0 °F 94% 29.99 in 10.0 mi Calm Calm - N/A   Clear
2:55 AM 60.8 °F - 59.0 °F 94% 29.99 in 10.0 mi Calm Calm - N/A   Clear
3:15 AM 59.0 °F - 59.0 °F 100% 29.99 in 10.0 mi Calm Calm - N/A   Clear
3:35 AM 59.0 °F - 57.2 °F 94% 29.99 in 1.8 mi Calm Calm - N/A   Clear
3:55 AM 59.0 °F - 57.2 °F 94% 29.98 in 0.5 mi Calm Calm - N/A   Mist
4:15 AM 57.2 °F - 57.2 °F 100% 29.98 in 2.0 mi Calm Calm - N/A   Clear
4:35 AM 59.0 °F - 57.2 °F 94% 29.98 in 3.0 mi Calm Calm - N/A   Clear
4:55 AM 57.2 °F - 57.2 °F 100% 29.99 in 3.0 mi Calm Calm - N/A   Clear
5:15 AM 57.2 °F - 57.2 °F 100% 29.99 in 10.0 mi Calm Calm - N/A   Clear
5:55 AM 57.2 °F - 55.4 °F 94% 29.99 in 10.0 mi Calm Calm - N/A   Clear
6:15 AM 57.2 °F - 55.4 °F 94% 29.99 in 10.0 mi Calm Calm - N/A   Clear
6:35 AM 57.2 °F - 55.4 °F 94% 30.00 in 10.0 mi Calm Calm - N/A   Clear
6:55 AM 55.4 °F - 55.4 °F 100% 30.01 in 10.0 mi Calm Calm - N/A   Clear
7:15 AM 55.4 °F - 55.4 °F 100% 30.01 in 10.0 mi Calm Calm - N/A   Clear
7:35 AM 55.4 °F - 55.4 °F 100% 30.02 in 5.0 mi Calm Calm - N/A   Scattered Clouds
7:55 AM 57.2 °F - 57.2 °F 100% 30.02 in 3.0 mi Calm Calm - N/A   Overcast
8:15 AM 59.0 °F - 57.2 °F 94% 30.02 in 0.2 mi Calm Calm - N/A Fog Fog
8:35 AM 59.0 °F - 59.0 °F 100% 30.03 in 0.2 mi East 3.5 mph - N/A Fog Fog
8:55 AM 59.0 °F - 59.0 °F 100% 30.05 in 0.2 mi Calm Calm - N/A Fog Fog
9:15 AM 60.8 °F - 60.8 °F 100% 30.05 in 0.2 mi East 4.6 mph - N/A Fog Fog
9:35 AM 60.8 °F - 60.8 °F 100% 30.05 in 2.0 mi East 4.6 mph - N/A   Overcast
10:15 AM 64.4 °F - 64.4 °F 100% 30.06 in 10.0 mi East 4.6 mph - N/A   Overcast
10:35 AM 66.2 °F - 64.4 °F 94% 30.06 in 10.0 mi East 5.8 mph - N/A   Overcast
10:55 AM 68.0 °F - 64.4 °F 88% 30.05 in 10.0 mi East 6.9 mph - N/A   Mostly Cloudy
11:35 AM 71.6 °F - 64.4 °F 78% 30.05 in 10.0 mi SE 9.2 mph - N/A   Mostly Cloudy
12:35 PM 75.2 °F - 64.4 °F 69% 30.04 in 10.0 mi SE 5.8 mph 15.0 mph N/A   Mostly Cloudy
12:55 PM 75.2 °F - 64.4 °F 69% 30.04 in 10.0 mi SE 10.4 mph - N/A   Scattered Clouds
1:15 PM 77.0 °F - 64.4 °F 65% 30.04 in 10.0 mi SE 10.4 mph - N/A   Mostly Cloudy
1:55 PM 78.8 °F - 64.4 °F 61% 30.02 in 10.0 mi SSE 10.4 mph - N/A   Mostly Cloudy
2:15 PM 78.8 °F - 64.4 °F 61% 30.01 in 10.0 mi SSE 11.5 mph - N/A   Overcast
2:35 PM 77.0 °F - 64.4 °F 65% 30.01 in 10.0 mi SE 9.2 mph - N/A   Overcast
2:55 PM 78.8 °F - 64.4 °F 61% 30.00 in 10.0 mi South 9.2 mph - N/A   Mostly Cloudy
3:15 PM 78.8 °F - 64.4 °F 61% 30.00 in 10.0 mi SSE 10.4 mph - N/A   Mostly Cloudy
3:35 PM 78.8 °F - 64.4 °F 61% 29.99 in 10.0 mi SSE 8.1 mph - N/A   Scattered Clouds
3:55 PM 78.8 °F - 64.4 °F 61% 29.99 in 10.0 mi SE 8.1 mph - N/A   Scattered Clouds
4:15 PM 78.8 °F - 64.4 °F 61% 29.99 in 10.0 mi South 5.8 mph - N/A   Partly Cloudy
4:35 PM 80.6 °F 82.3 °F 64.4 °F 58% 29.99 in 10.0 mi South 8.1 mph - N/A   Scattered Clouds
5:15 PM 78.8 °F - 64.4 °F 61% 29.99 in 10.0 mi SE 8.1 mph - N/A   Clear
5:55 PM 77.0 °F - 64.4 °F 65% 29.98 in 10.0 mi ESE 5.8 mph - N/A   Partly Cloudy
6:15 PM 77.0 °F - 66.2 °F 69% 29.98 in 10.0 mi SE 6.9 mph - N/A   Clear
6:35 PM 75.2 °F - 66.2 °F 73% 29.98 in 10.0 mi SE 6.9 mph - N/A   Partly Cloudy
6:55 PM 75.2 °F - 66.2 °F 73% 29.99 in 10.0 mi SE 10.4 mph - N/A   Partly Cloudy
7:15 PM 73.4 °F - 66.2 °F 78% 29.99 in 10.0 mi SE 9.2 mph - N/A   Scattered Clouds
7:35 PM 73.4 °F - 66.2 °F 78% 30.00 in 10.0 mi SE 11.5 mph - N/A   Mostly Cloudy
7:55 PM 71.6 °F - 66.2 °F 83% 29.99 in 10.0 mi ESE 9.2 mph - N/A   Partly Cloudy
8:15 PM 71.6 °F - 66.2 °F 83% 29.99 in 10.0 mi SE 8.1 mph - N/A   Partly Cloudy
8:35 PM 71.6 °F - 66.2 °F 83% 30.00 in 10.0 mi SE 8.1 mph - N/A   Mostly Cloudy
8:55 PM 71.6 °F - 66.2 °F 83% 30.00 in 10.0 mi SE 6.9 mph - N/A   Overcast
9:15 PM 71.6 °F - 66.2 °F 83% 30.00 in 10.0 mi ESE 5.8 mph - N/A   Overcast
9:35 PM 69.8 °F - 66.2 °F 88% 30.00 in 10.0 mi SE 5.8 mph - N/A   Mostly Cloudy
9:55 PM 69.8 °F - 66.2 °F 88% 30.00 in 10.0 mi ESE 4.6 mph - N/A   Overcast
10:15 PM 69.8 °F - 66.2 °F 88% 30.01 in 10.0 mi SE 6.9 mph - N/A   Overcast
10:35 PM 69.8 °F - 66.2 °F 88% 30.01 in 10.0 mi SE 4.6 mph - N/A   Overcast
10:55 PM 69.8 °F - 66.2 °F 88% 30.01 in 10.0 mi ESE 4.6 mph - N/A   Overcast
11:15 PM 69.8 °F - 66.2 °F 88% 30.02 in 10.0 mi ESE 3.5 mph - N/A   Overcast
11:35 PM 69.8 °F - 66.2 °F 88% 30.01 in 10.0 mi ESE 5.8 mph - N/A   Overcast
11:55 PM 69.8 °F - 66.2 °F 88% 30.01 in 10.0 mi Calm Calm - N/A   Overcast